Theta_e
286 281 277 278 282 282 282 281 279 282 286 284 283 283 285 289 289 290 292 295 298 301 306 314 318 323 324 324 323 323 321 320 316 312 308 306 304 301 301 301 301 300 298 298
281 278 281 283 283 282 281 280 278 281 284 284 282 281 285 287 288 290 292 293 294 298 301 307 314 318 321 322 323 322 321 317 316 313 314 310 303 300 299 299 298 298 297 296
278 279 285 283 282 281 281 278 278 277 281 283 281 279 282 286 289 290 291 293 295 296 297 303 312 315 319 320 321 321 320 315 315 314 307 302 298 298 297 296 296 296 296 296
280 283 283 281 280 281 276 281 280 280 275 268 281 272 280 284 285 288 290 291 294 296 298 300 305 314 317 319 322 321 318 315 314 311 307 303 303 298 297 296 295 294 295 293
278 279 280 280 281 282 280 283 281 281 277 275 277 273 278 283 282 285 289 291 293 296 297 299 302 312 316 319 321 320 316 314 312 309 307 306 305 302 296 294 293 292 293 293
281 284 283 282 284 283 284 282 281 280 276 269 273 273 276 280 283 286 291 293 294 296 298 300 303 308 314 318 320 318 313 312 309 309 306 309 303 295 293 292 291 291 290 290
279 280 282 284 281 283 282 277 265 263 261 268 276 273 278 283 286 290 290 291 293 295 297 300 302 307 312 315 317 315 312 310 307 307 306 306 298 297 294 292 290 289 288 288
271 268 278 283 282 279 278 277 269 266 265 270 278 272 278 287 291 291 293 292 293 293 295 299 302 305 310 313 315 314 310 308 307 306 305 300 298 296 294 292 290 289 289 288
273 272 281 281 282 281 279 276 281 275 275 272 270 276 281 288 290 290 290 292 292 293 293 300 304 308 309 312 313 312 310 304 304 301 297 296 295 293 291 291 290 289 289 288
276 271 279 281 282 282 281 283 275 274 268 265 268 271 275 284 286 288 289 289 290 290 293 301 304 306 307 310 311 311 308 305 301 297 296 294 293 292 291 291 289 288 288 287
279 276 275 279 277 274 276 277 279 279 276 271 269 272 284 285 287 286 288 289 289 289 294 299 300 301 301 301 303 302 302 298 296 295 294 293 292 291 291 289 288 288 287 287
281 277 271 273 280 279 279 278 278 273 271 274 274 274 288 288 287 289 289 289 288 289 296 296 297 297 297 297 297 297 296 295 295 293 292 291 291 290 289 288 288 288 287 288
279 272 263 269 274 280 279 279 280 278 277 272 271 274 287 287 287 290 288 287 287 289 291 291 293 293 294 295 294 294 294 293 293 292 291 291 290 289 288 288 288 288 287 287
284 274 269 267 273 275 274 275 277 276 272 273 274 276 282 284 286 286 287 287 286 287 288 287 289 290 291 292 293 293 292 292 292 291 290 289 289 289 289 289 288 288 287 286
276 270 271 274 275 275 274 274 275 275 276 274 276 277 281 284 283 285 289 287 286 286 286 286 286 287 289 290 290 291 291 291 291 291 290 290 290 289 289 288 287 287 286 285
278 268 270 267 271 274 272 275 275 276 277 277 278 278 285 283 285 287 286 286 286 286 286 285 286 286 286 288 289 290 291 291 291 290 289 289 289 288 287 287 286 285 285 284
277 273 270 261 269 266 263 271 277 277 278 279 276 281 284 280 283 285 284 285 286 287 286 286 286 286 286 287 289 289 290 291 291 290 289 289 288 287 286 286 284 284 283 282
277 275 271 265 262 257 273 275 276 276 279 280 281 282 281 281 285 287 287 285 286 286 287 286 286 286 286 288 289 290 291 290 289 288 288 288 287 285 284 284 283 282 281 281
280 277 267 258 254 267 272 276 277 275 277 282 280 281 280 285 287 289 287 287 286 288 286 287 287 287 287 287 289 289 288 287 287 286 285 285 285 284 283 282 281 280 280 279
278 278 272 256 261 259 269 278 279 279 272 282 280 279 280 283 280 283 286 287 286 287 287 286 287 287 286 286 288 287 287 286 285 284 284 284 283 282 282 281 280 279 279 279
267 270 267 259 264 266 275 278 279 267 273 281 281 279 281 280 283 285 286 286 286 285 287 289 288 286 285 286 287 286 285 285 284 282 282 282 282 281 281 279 278 278 278 278
264 264 261 264 264 262 277 277 276 278 282 281 280 280 280 281 282 284 284 284 284 284 284 285 286 285 286 286 286 284 284 283 282 282 281 280 280 280 279 279 276 276 276 276
264 269 266 268 270 279 279 280 283 282 281 281 280 281 280 280 281 282 282 283 283 283 283 283 283 282 284 286 286 285 284 283 281 280 279 278 278 278 278 278 275 275 275 276
269 271 269 271 274 276 278 279 279 278 278 279 280 279 279 280 280 282 282 282 283 282 282 281 280 280 280 280 281 283 283 280 281 279 278 277 276 276 276 277 277 277 275 274
271 271 269 269 274 276 277 277 277 278 279 279 279 280 280 280 281 281 281 281 282 281 281 280 279 279 278 277 277 279 280 279 279 278 276 277 277 277 275 275 276 276 276 277
271 271 271 270 275 274 276 276 277 278 277 278 278 279 279 279 281 280 280 280 280 280 278 276 275 274 274 274 274 272 276 278 277 276 276 276 276 274 274 274 274 279 281 281
Wind_Speed
5 5 2 5 5 5 3 8 16 19 14 15 17 26 21 18 17 20 22 19 17 19 15 12 14 18 20 21 21 22 21 20 15 12 10 6 7 5 5 4 7 7 8 8
5 2 3 5 6 4 6 12 15 8 10 8 15 32 24 20 23 24 24 24 23 20 18 15 13 14 17 19 22 22 22 20 17 13 11 6 7 4 4 5 6 7 8 8
2 4 4 3 6 2 5 9 10 16 8 11 18 25 17 17 16 20 23 26 26 22 21 19 15 19 18 20 21 22 21 21 19 16 10 9 8 7 5 6 5 4 6 7
5 3 2 6 8 4 4 6 9 11 8 4 3 22 17 22 19 18 22 21 23 25 21 23 21 20 22 21 21 23 22 22 20 21 15 21 13 10 6 7 7 6 5 7
6 4 2 6 6 5 9 2 11 15 15 9 21 5 15 22 21 23 18 17 20 21 20 22 23 23 23 22 21 20 21 22 21 22 21 16 15 9 10 9 11 8 5 6
8 3 3 5 5 7 6 5 13 11 3 5 9 6 12 17 10 11 12 13 14 15 18 20 22 20 22 24 22 20 22 22 21 20 18 21 21 16 13 11 9 7 6 3
9 4 3 3 5 3 4 5 6 8 5 10 5 6 17 22 8 5 13 16 17 18 20 19 20 18 21 23 23 20 23 23 25 23 20 19 19 20 20 17 12 12 7 4
3 12 1 1 2 5 6 4 3 7 7 21 9 8 9 4 4 7 14 17 16 17 20 22 21 21 23 24 24 23 24 21 22 23 21 15 17 12 13 14 13 10 8 4
2 9 5 5 5 4 1 3 7 8 8 9 5 9 12 3 15 18 22 21 24 25 18 20 18 18 20 20 21 23 22 21 20 18 17 17 15 18 16 18 15 11 12 6
2 9 5 6 4 4 5 4 5 3 7 10 6 9 9 17 14 16 26 24 25 20 16 13 14 13 12 15 16 20 21 23 20 21 18 17 17 18 18 17 17 15 13 10
1 5 6 4 4 5 4 4 4 3 4 7 12 13 8 7 13 20 24 24 27 20 18 10 6 8 7 8 11 13 15 20 18 20 20 21 18 20 17 17 15 15 11 12
4 3 8 10 14 3 6 5 2 3 8 8 12 22 2 6 19 19 21 23 22 19 11 9 9 10 9 9 11 14 16 15 17 19 21 19 20 21 17 18 17 13 13 9
4 2 6 13 6 3 3 3 4 5 8 14 13 12 3 25 24 19 24 19 15 14 7 6 7 9 10 11 12 14 15 16 15 20 22 20 19 20 19 19 15 14 13 10
4 5 8 9 14 6 15 15 16 10 6 12 16 24 25 26 22 27 21 19 14 7 5 5 7 8 8 11 13 15 16 18 19 15 22 22 20 18 17 17 16 13 12 12
4 5 4 16 20 19 20 25 19 14 17 9 23 23 27 23 24 23 16 19 12 7 4 5 5 6 9 12 13 15 16 18 20 18 18 20 20 18 16 14 14 13 12 10
3 7 3 8 11 10 14 22 18 16 15 12 17 25 13 23 19 15 12 18 14 6 3 5 6 7 8 11 13 15 16 18 20 19 19 17 19 18 15 14 13 12 11 10
4 2 4 10 7 9 4 8 5 6 7 5 7 15 19 24 21 18 15 19 16 7 3 4 6 7 7 10 12 14 16 18 19 19 18 17 17 15 13 12 11 11 10 9
6 2 2 8 9 5 8 7 9 8 12 8 12 14 16 18 18 11 12 15 17 9 5 5 6 7 7 10 11 14 14 17 17 16 15 14 15 14 12 12 11 9 8 8
9 4 3 2 3 11 10 2 1 1 7 4 7 11 11 19 10 5 18 15 13 10 5 4 6 7 8 10 10 12 15 15 15 12 13 12 13 13 11 11 10 8 8 5
7 7 3 3 2 6 8 2 2 2 5 5 4 6 7 13 11 10 21 14 9 8 5 5 6 7 8 8 8 12 13 13 12 12 11 11 10 11 10 9 9 4 5 5
3 4 11 4 6 12 13 11 1 6 7 3 2 6 4 5 2 13 13 13 9 5 6 6 7 7 7 6 7 9 9 9 8 9 9 9 8 9 9 9 4 6 4 6
10 9 6 3 4 11 7 3 5 5 4 4 5 5 5 6 9 5 7 8 10 8 7 6 6 7 6 7 8 7 8 7 8 8 8 7 8 6 7 9 5 5 6 5
4 9 7 12 11 6 4 6 6 2 12 13 5 6 5 7 5 8 6 6 6 6 4 4 5 6 4 5 7 9 7 7 6 7 7 8 6 5 6 8 6 5 6 5
7 5 5 2 6 12 16 11 7 6 12 6 5 7 5 6 6 6 5 5 4 3 3 2 5 6 5 4 4 5 7 7 9 7 6 6 8 7 6 5 5 5 5 5
6 9 7 7 15 14 12 9 8 7 6 5 5 4 3 3 6 4 5 5 4 3 3 2 3 4 4 3 3 4 8 8 7 7 6 7 5 6 6 3 6 6 2 6
9 10 8 10 11 4 6 4 2 6 5 5 3 4 1 1 4 3 3 1 1 3 2 3 2 3 4 5 5 3 6 7 8 7 5 5 6 5 4 3 1 7 10 14
Wind_Direction
0 30 278 286 226 249 291 279 281 266 271 283 269 275 282 279 271 268 271 266 260 265 272 246 233 210 202 199 192 184 178 174 162 159 155 155 154 145 136 133 133 130 129 131
11 266 228 247 248 218 263 273 271 282 261 268 285 280 289 280 266 260 259 260 258 250 252 253 213 215 202 197 191 183 183 171 172 167 166 158 141 139 130 126 119 129 130 134
196 248 295 257 296 276 249 254 281 277 304 252 278 282 291 275 260 254 252 250 253 251 240 235 220 204 212 200 194 185 181 175 174 164 138 117 98 107 133 133 121 116 127 124
239 270 297 292 274 186 267 271 274 285 334 280 81 295 298 281 276 270 263 253 249 249 239 234 222 205 203 208 197 189 178 180 173 161 159 157 164 163 160 149 134 122 123 126
264 275 283 281 237 163 243 342 285 282 275 311 276 253 290 289 287 277 275 271 255 246 241 233 231 207 202 204 202 189 181 179 176 171 166 166 160 157 139 132 126 117 105 124
251 313 233 231 278 218 283 299 287 286 261 254 262 177 276 290 283 321 332 321 310 279 253 234 230 227 217 196 197 186 180 180 167 171 173 168 159 148 138 141 133 121 103 101
315 257 264 212 297 300 33 355 324 348 355 259 274 315 271 292 299 306 316 324 321 306 291 243 224 214 213 208 192 184 181 183 172 162 168 168 158 152 150 148 139 132 117 119
3 324 314 130 251 269 295 172 200 287 291 295 285 239 260 215 258 289 317 314 305 301 295 254 221 214 210 207 200 183 180 174 173 169 163 153 146 137 137 135 133 125 116 134
358 272 289 281 272 172 331 217 217 257 262 275 255 281 293 321 335 339 322 315 318 313 292 249 216 208 208 205 198 183 174 163 161 146 139 135 134 129 127 125 121 119 121 140
224 288 251 287 334 248 217 322 324 331 307 285 280 275 266 311 311 310 323 324 314 305 301 235 209 202 191 197 181 182 169 168 157 148 138 131 132 128 130 126 126 129 133 134
211 206 278 356 212 196 340 286 237 259 237 291 311 294 271 273 299 320 316 308 319 310 292 243 159 142 139 145 135 134 148 142 148 138 134 130 131 124 130 123 126 131 139 140
196 272 279 249 284 213 198 230 214 316 301 275 279 277 318 230 319 331 318 307 313 313 318 153 143 131 126 129 127 127 132 136 139 132 122 128 129 123 131 128 132 140 131 137
190 267 321 334 2 29 249 234 245 281 270 264 277 280 324 314 320 322 319 313 311 317 13 20 115 116 128 133 130 133 129 122 129 126 125 126 126 129 133 130 136 140 134 140
166 213 188 220 260 297 295 286 287 271 260 283 259 286 303 313 324 315 320 318 315 330 16 52 61 88 111 121 132 127 124 125 122 130 128 127 130 134 134 138 142 143 147 147
157 261 238 251 270 277 277 279 282 254 247 259 289 295 298 311 316 312 325 321 325 331 42 83 100 100 112 115 119 123 125 130 124 126 128 129 130 130 137 142 140 149 151 145
189 276 300 277 252 258 270 278 270 261 269 254 266 284 299 310 312 327 342 337 346 350 44 101 106 106 104 119 126 126 126 126 125 129 125 129 130 134 146 144 149 140 145 152
195 262 322 269 321 317 352 229 236 264 241 235 276 298 319 316 325 327 356 345 347 2 51 97 100 107 110 114 122 125 126 129 127 127 132 138 133 137 141 137 138 138 144 148
223 166 259 279 342 7 244 292 249 234 274 261 266 295 309 307 304 316 2 346 341 4 23 73 98 97 92 116 119 118 128 124 120 128 131 133 132 132 136 140 139 141 143 156
225 181 269 251 223 289 301 255 324 323 294 239 279 307 325 327 315 344 2 1 344 19 24 42 77 86 92 101 120 135 118 108 116 123 124 130 133 133 137 138 141 138 139 154
188 218 201 75 245 254 237 318 53 73 283 217 242 308 328 335 6 340 335 343 9 10 63 54 68 82 82 86 96 105 111 117 119 127 129 125 125 133 141 140 141 129 143 159
169 199 223 222 264 278 255 261 158 80 247 332 281 298 321 346 253 298 314 340 356 36 56 84 84 83 79 75 87 94 104 106 110 108 115 119 131 137 136 133 130 144 134 133
171 162 202 164 222 276 199 326 190 234 299 280 293 270 305 289 303 312 332 350 347 6 37 59 79 86 90 88 88 89 90 109 116 126 127 124 115 137 142 138 110 141 139 148
271 195 180 186 217 248 196 243 261 271 279 286 262 276 305 302 320 328 325 356 9 9 18 55 93 94 90 121 133 133 138 141 124 108 116 133 147 128 123 137 157 152 167 172
239 176 222 58 271 241 255 263 254 257 256 287 273 276 268 281 318 316 340 10 26 17 42 26 108 124 126 103 101 116 145 124 127 134 156 145 143 150 168 163 166 153 168 185
206 147 190 267 284 280 272 250 249 280 287 296 271 244 254 305 310 313 336 13 14 55 27 76 127 129 138 148 146 141 147 143 152 153 155 164 154 165 168 150 180 192 177 183
183 197 179 219 227 205 245 220 230 268 300 327 321 339 25 268 296 326 347 43 29 15 50 84 36 113 149 154 157 170 153 151 152 159 166 163 166 175 150 158 208 243 221 220